Location: Asarope
(8.2500°N, 4.4833°E)
Time: 00:49:59
(UTC+00:00)

Hubble Space Telescope - Pass Details

Date: 06 August 2021
Orbit: 535 x 539 km, 28.5° (Epoch: 24 September)

Event Time Altitude Azimuth Distance (km) Brightness Sun altitude
Rises 20:01:03 0° 293° (WNW) 2,666 5.6 -28.7°
Reaches altitude 10° 20:03:20 10° 290° (WNW) 1,776 4.3 -29.2°
Enters shadow 20:05:28 29° 279° (W) 1,000 2.6 -29.7°
